#timestamp,LO_Frequency,Hit 
1501657215.3,286047020.8,N
1501657235.1,286047021.0,N
1501657255.9,286047021.9,N
1501657275.7,286047023.6,N
1501657295.5,286047020.9,N
1501657315.4,286047022.8,N
1501657335.2,286047023.5,N
1501657355.0,286047021.0,N
1501657355.9,286047021.0,N
1501657375.8,286047021.9,N
1501657395.6,286047021.7,N
1501657415.4,286047025.1,N
1501657435.3,286047022.2,N
1501657455.1,286047022.6,N
1501657475.8,286047022.7,N
1501657495.7,286047025.2,N
1501657515.5,286047022.4,N
1501657535.3,286047022.2,N
1501657555.2,286047024.3,N
1501657575.9,286047028.3,N
1501657595.7,286047028.9,N
1501657615.6,286047028.4,N
1501657635.4,286047028.4,N
1501657655.2,286047029.4,N
1501657675.0,286047032.0,N
1501657675.9,286047032.0,N
1501657695.8,286047030.7,N
1501657715.6,286047027.2,N
1501657735.4,286047026.0,N
1501657755.3,286047027.9,N
1501657775.1,286047025.4,N
1501657795.8,286047027.8,N
1501657815.7,286047029.8,N
1501657835.5,286047029.2,N
1501657855.3,286047032.4,N
1501657875.2,286047037.8,N
1501657895.9,286047036.0,N
1501657915.7,286047036.0,N
1501657935.6,286047032.4,N
1501657955.4,286047028.5,N
1501657975.2,286047029.4,N
1501657995.1,286047029.6,N
1501657996.0,286047029.6,N
1501658015.8,286047029.5,N
1501658035.6,286047029.2,N
1501658055.5,286047027.9,N
1501658075.3,286047028.3,N
1501658095.1,286047026.8,N
1501658115.9,286047024.2,N
1501658135.8,286047024.9,N
1501658155.6,286047024.3,N
1501658175.4,286047028.1,N
1501658195.3,286047025.7,N
1501658215.1,286047025.8,N
1501658235.8,286047028.6,N
1501658255.4,286047029.3,N
1501658275.2,286047027.4,N
1501658295.0,286047027.9,N
1501658295.9,286047027.9,N
1501658315.8,286047029.7,N
1501658335.6,286047026.3,N
1501658355.4,286047023.9,N
1501658375.3,286047026.2,N
1501658395.1,286047022.1,N
1501658396.0,286047022.1,N
1501658415.8,286047019.0,N
1501658435.6,286047020.2,N
1501658455.5,286047019.6,N
1501658475.3,286047016.9,N
1501658495.1,286047017.9,N
1501658515.9,286047016.4,N
1501658535.7,286047020.3,N
1501658555.5,286047021.9,N
1501658575.4,286047018.0,N
1501658595.2,286047018.1,N
1501658615.0,286047015.0,N
1501658615.9,286047015.0,N
1501658635.8,286047013.6,N
1501658655.6,286047007.8,N
1501658675.4,286047006.1,N
1501658695.3,286047007.2,N
1501658715.1,286047005.7,N
1501658716.0,286047005.7,N
1501658735.8,286047004.9,N
1501658755.7,286047008.3,N
1501658775.5,286047009.3,N
1501658795.3,286047009.0,N
1501658815.2,286047007.3,N
1501658835.9,286047009.2,N
1501658855.7,286047007.6,N
1501658875.5,286047005.4,N
1501658895.4,286047007.2,N
1501658915.2,286047008.8,N
1501658935.0,286047012.4,N
1501658935.9,286047012.4,N
1501658955.8,286047010.7,N
1501658975.6,286047007.8,N
1501658995.4,286047013.4,N
1501659015.3,286047013.5,N
1501659035.1,286047013.9,N
1501659036.0,286047013.9,N
1501659055.8,286047009.9,N
1501659075.7,286047007.8,N
1501659095.5,286047008.5,N
1501659115.3,286047010.8,N
1501659135.2,286047009.7,N
1501659155.9,286047009.3,N
1501659175.7,286047013.3,N
1501659195.6,286047014.2,N
1501659215.4,286047014.6,N
1501659235.2,286047014.5,N
1501659255.1,286047017.3,N
1501659256.0,286047017.3,N
1501659275.8,286047018.1,N
1501659295.6,286047018.6,N
1501659315.5,286047018.2,N
1501659335.3,286047016.7,N
1501659355.1,286047017.1,N
1501659375.9,286047018.4,N
1501659395.7,286047017.0,N
1501659415.5,286047016.2,N
1501659435.3,286047021.1,N
1501659455.2,286047023.6,N
1501659475.0,286047019.9,N
1501659475.9,286047019.9,N
1501659495.8,286047020.2,N
1501659515.6,286047017.8,N
1501659535.4,286047015.8,N
1501659555.3,286047014.7,N
1501659575.1,286047010.8,N
1501659595.8,286047009.4,N
1501659615.7,286047008.2,N
1501659635.5,286047008.2,N
1501659655.3,286047008.3,N
1501659675.2,286047004.6,N
1501659695.9,286047005.6,N
1501659715.7,286047002.9,N
1501659735.6,286047004.5,N
1501659755.4,286047001.6,N
1501659775.2,286047001.7,N
1501659795.1,286047003.9,N
1501659796.0,286047003.9,N
1501659815.8,286047004.3,N
1501659835.6,286047001.2,N
1501659855.5,286046996.9,N
1501659875.3,286046997.4,N
1501659895.1,286046998.2,N
1501659915.9,286047000.7,N
1501659935.5,286046998.8,N
1501659955.3,286046999.4,N
1501659975.2,286046998.9,N
1501659995.9,286046998.2,N
1501660015.7,286046999.9,N
1501660035.6,286047000.7,N
1501660055.4,286046999.7,N
1501660075.2,286047004.1,N
1501660095.0,286047006.0,N
1501660096.0,286047006.0,N
1501660115.8,286047006.0,N
1501660135.6,286047007.6,N
1501660155.4,286047007.2,N
1501660175.3,286047009.5,N
1501660195.1,286047013.4,N
1501660215.8,286047012.6,N
1501660235.7,286047014.3,N
1501660255.5,286047014.4,N
1501660275.3,286047015.5,N
1501660295.2,286047013.3,N
1501660315.0,286047014.3,N
1501660315.9,286047014.3,N
1501660335.7,286047012.8,N
1501660355.6,286047014.3,N
1501660375.4,286047015.2,N
1501660395.2,286047015.2,N
1501660415.1,286047016.6,N
1501660416.0,286047016.6,N
1501660435.8,286047017.9,N
1501660455.6,286047014.4,N
1501660475.5,286047014.3,N
1501660495.3,286047014.6,N
1501660515.1,286047015.2,N
1501660535.9,286047011.4,N
1501660555.7,286047012.2,N
1501660575.5,286047013.0,N
1501660595.6,286047012.1,N
1501660615.4,286047008.0,N
1501660635.2,286047007.9,N
1501660655.1,286047011.8,N
1501660656.0,286047011.8,N
1501660675.8,286047011.5,N
1501660695.6,286047013.9,N
1501660715.5,286047011.1,N
1501660735.3,286047011.8,N
1501660755.1,286047010.3,N
1501660775.9,286047006.9,N
1501660795.7,286047005.4,N
